,,PressureMeas_1m,,PRMeasQMR101_1,,RHStat155_1m_1,,SRMeasQMS101R_1m,,TAStat155_1m_1,,GenWind_1,,GenWind_1,
2019-03-19, 00:00:06,VALID,919.897,VALID,0.0,VALID,94.813,VALID,-0.013,VALID,20.949,VALID,294.0,VALID,0.0,
2019-03-19, 00:01:06,VALID,919.879,VALID,0.0,VALID,94.996,VALID,-0.01,VALID,20.94,VALID,292.0,VALID,0.0,
2019-03-19, 00:02:06,VALID,919.838,VALID,0.0,VALID,94.902,VALID,-0.024,VALID,20.93,VALID,292.0,VALID,0.0,
2019-03-19, 00:03:06,VALID,919.813,VALID,0.0,VALID,94.836,VALID,-0.026,VALID,20.915,VALID,292.0,VALID,0.0,
2019-03-19, 00:04:06,VALID,919.798,VALID,0.0,VALID,94.874,VALID,-0.014,VALID,20.912,VALID,292.0,VALID,0.0,
2019-03-19, 00:05:06,VALID,919.787,VALID,0.0,VALID,94.906,VALID,-0.016,VALID,20.904,VALID,292.0,VALID,0.0,
2019-03-19, 00:06:06,VALID,919.762,VALID,0.0,VALID,94.937,VALID,-0.007,VALID,20.895,VALID,356.0,VALID,0.0,
2019-03-19, 00:07:06,VALID,919.752,VALID,0.0,VALID,94.376,VALID,-0.029,VALID,20.795,VALID,78.0,VALID,0.0,
2019-03-19, 00:08:06,VALID,919.746,VALID,0.0,VALID,94.505,VALID,-0.015,VALID,20.694,VALID,85.0,VALID,0.0,
2019-03-19, 00:09:06,VALID,919.718,VALID,0.0,VALID,94.627,VALID,-0.021,VALID,20.607,VALID,81.0,VALID,0.0,
2019-03-19, 00:10:06,VALID,919.709,VALID,0.0,VALID,94.772,VALID,-0.016,VALID,20.55,VALID,83.0,VALID,0.0,
2019-03-19, 00:11:06,VALID,919.696,VALID,0.0,VALID,94.914,VALID,-0.016,VALID,20.501,VALID,87.0,VALID,0.0,
2019-03-19, 00:12:06,VALID,919.666,VALID,0.0,VALID,95.545,VALID,-0.025,VALID,20.481,VALID,86.0,VALID,0.0,
2019-03-19, 00:13:06,VALID,919.65,VALID,0.0,VALID,95.473,VALID,-0.009,VALID,20.445,VALID,86.0,VALID,0.0,
2019-03-19, 00:14:06,VALID,919.62,VALID,0.0,VALID,95.536,VALID,-0.025,VALID,20.437,VALID,81.0,VALID,0.0,
2019-03-19, 00:15:06,VALID,919.618,VALID,0.0,VALID,95.774,VALID,-0.017,VALID,20.436,VALID,86.0,VALID,0.0,
2019-03-19, 00:16:06,VALID,919.582,VALID,0.0,VALID,95.945,VALID,-0.009,VALID,20.421,VALID,90.0,VALID,0.0,
2019-03-19, 00:17:06,VALID,919.584,VALID,0.0,VALID,96.077,VALID,-0.016,VALID,20.383,VALID,90.0,VALID,0.0,
2019-03-19, 00:18:06,VALID,919.555,VALID,0.0,VALID,96.222,VALID,-0.015,VALID,20.358,VALID,91.0,VALID,0.0,
2019-03-19, 00:19:06,VALID,919.549,VALID,0.0,VALID,96.418,VALID,-0.001,VALID,20.336,VALID,97.0,VALID,0.0,
2019-03-19, 00:20:06,VALID,919.514,VALID,0.0,VALID,96.508,VALID,-0.019,VALID,20.3,VALID,95.0,VALID,0.0,
2019-03-19, 00:21:06,VALID,919.509,VALID,0.0,VALID,96.604,VALID,-0.014,VALID,20.285,VALID,94.0,VALID,0.0,
2019-03-19, 00:22:06,VALID,919.488,VALID,0.0,VALID,96.653,VALID,0.001,VALID,20.261,VALID,92.0,VALID,0.0,
2019-03-19, 00:23:06,VALID,919.442,VALID,0.0,VALID,96.622,VALID,-0.012,VALID,20.234,VALID,93.0,VALID,0.0,
2019-03-19, 00:24:06,VALID,919.413,VALID,0.0,VALID,96.591,VALID,-0.02,VALID,20.227,VALID,89.0,VALID,0.0,
2019-03-19, 00:25:06,VALID,919.398,VALID,0.0,VALID,96.643,VALID,-0.009,VALID,20.249,VALID,90.0,VALID,0.0,
2019-03-19, 00:26:06,VALID,919.346,VALID,0.0,VALID,96.713,VALID,-0.029,VALID,20.308,VALID,84.0,VALID,0.0,
2019-03-19, 00:27:06,VALID,919.325,VALID,0.0,VALID,96.652,VALID,-0.005,VALID,20.338,VALID,87.0,VALID,0.0,
2019-03-19, 00:28:06,VALID,919.264,VALID,0.0,VALID,96.474,VALID,0.012,VALID,20.326,VALID,78.0,VALID,0.0,
2019-03-19, 00:29:06,VALID,919.243,VALID,0.0,VALID,96.504,VALID,-0.014,VALID,20.354,VALID,71.0,VALID,0.0,
2019-03-19, 00:30:06,VALID,919.195,VALID,0.0,VALID,96.691,VALID,-0.003,VALID,20.391,VALID,69.0,VALID,0.0,
2019-03-19, 00:31:06,VALID,919.164,VALID,0.0,VALID,96.694,VALID,0.008,VALID,20.419,VALID,74.0,VALID,0.0,
2019-03-19, 00:32:06,VALID,919.141,VALID,0.0,VALID,96.611,VALID,0.008,VALID,20.431,VALID,74.0,VALID,0.0,
2019-03-19, 00:33:06,VALID,919.127,VALID,0.0,VALID,96.44,VALID,-0.0,VALID,20.453,VALID,72.0,VALID,0.0,
2019-03-19, 00:34:06,VALID,919.144,VALID,0.0,VALID,96.186,VALID,-0.0,VALID,20.463,VALID,81.0,VALID,0.0,
2019-03-19, 00:35:06,VALID,919.14,VALID,0.0,VALID,96.008,VALID,0.006,VALID,20.467,VALID,95.0,VALID,0.0,
2019-03-19, 00:36:06,VALID,919.136,VALID,0.0,VALID,95.788,VALID,0.006,VALID,20.458,VALID,99.0,VALID,0.0,
2019-03-19, 00:37:06,VALID,919.143,VALID,0.0,VALID,95.646,VALID,0.016,VALID,20.44,VALID,115.0,VALID,0.0,
2019-03-19, 00:38:06,VALID,919.142,VALID,0.0,VALID,95.617,VALID,0.018,VALID,20.445,VALID,126.0,VALID,0.0,
2019-03-19, 00:39:06,VALID,919.141,VALID,0.0,VALID,95.601,VALID,0.025,VALID,20.471,VALID,127.0,VALID,0.0,
2019-03-19, 00:40:06,VALID,919.136,VALID,0.0,VALID,95.525,VALID,-0.013,VALID,20.517,VALID,124.0,VALID,0.0,
2019-03-19, 00:41:06,VALID,919.138,VALID,0.0,VALID,95.359,VALID,0.001,VALID,20.537,VALID,102.0,VALID,0.0,
2019-03-19, 00:42:06,VALID,919.135,VALID,0.0,VALID,95.111,VALID,0.004,VALID,20.553,VALID,96.0,VALID,0.0,
2019-03-19, 00:43:06,VALID,919.126,VALID,0.0,VALID,94.945,VALID,-0.001,VALID,20.552,VALID,95.0,VALID,0.0,
2019-03-19, 00:44:06,VALID,919.12,VALID,0.0,VALID,95.011,VALID,0.006,VALID,20.561,VALID,107.0,VALID,0.0,
2019-03-19, 00:45:06,VALID,919.101,VALID,0.0,VALID,95.133,VALID,0.01,VALID,20.591,VALID,134.0,VALID,0.0,
2019-03-19, 00:46:06,VALID,919.096,VALID,0.0,VALID,94.913,VALID,0.006,VALID,20.656,VALID,134.0,VALID,0.0,
2019-03-19, 00:47:06,VALID,919.097,VALID,0.0,VALID,94.441,VALID,0.009,VALID,20.707,VALID,134.0,VALID,0.0,
2019-03-19, 00:48:06,VALID,919.072,VALID,0.0,VALID,94.139,VALID,-0.01,VALID,20.75,VALID,134.0,VALID,0.0,
2019-03-19, 00:49:06,VALID,919.061,VALID,0.0,VALID,93.826,VALID,0.002,VALID,20.781,VALID,135.0,VALID,0.0,
2019-03-19, 00:50:06,VALID,919.065,VALID,0.0,VALID,93.611,VALID,0.001,VALID,20.824,INVALID,360.0,VALID,0.0,
2019-03-19, 00:51:06,VALID,919.055,VALID,0.0,VALID,93.532,VALID,0.005,VALID,20.853,INVALID,360.0,VALID,0.0,
2019-03-19, 00:52:06,VALID,919.076,VALID,0.0,VALID,93.837,VALID,0.0,VALID,20.831,INVALID,360.0,VALID,0.0,
2019-03-19, 00:53:06,VALID,919.078,VALID,0.0,VALID,94.366,VALID,-0.02,VALID,20.789,INVALID,360.0,VALID,0.0,
2019-03-19, 00:54:06,VALID,919.088,VALID,0.0,VALID,94.801,VALID,-0.003,VALID,20.758,INVALID,360.0,VALID,0.0,
2019-03-19, 00:55:06,VALID,919.076,VALID,0.0,VALID,95.112,VALID,-0.001,VALID,20.73,INVALID,360.0,VALID,0.0,
2019-03-19, 00:56:06,VALID,919.076,VALID,0.0,VALID,95.736,VALID,0.002,VALID,20.685,INVALID,360.0,VALID,0.0,
2019-03-19, 00:57:06,VALID,919.094,VALID,0.0,VALID,96.082,VALID,-0.003,VALID,20.643,VALID,264.0,VALID,0.0,
2019-03-19, 00:58:06,VALID,919.117,VALID,0.0,VALID,96.344,VALID,-0.008,VALID,20.616,VALID,270.0,VALID,0.0,
2019-03-19, 00:59:06,VALID,919.108,VALID,0.0,VALID,96.459,VALID,0.005,VALID,20.598,VALID,270.0,VALID,0.0,
2019-03-19, 01:00:06,VALID,919.137,VALID,0.0,VALID,96.378,VALID,0.027,VALID,20.58,INVALID,360.0,VALID,0.0,
2019-03-19, 01:01:06,VALID,919.142,VALID,0.0,VALID,96.115,VALID,0.032,VALID,20.573,INVALID,360.0,VALID,0.0,
2019-03-19, 01:02:06,VALID,919.128,VALID,0.0,VALID,95.594,VALID,0.014,VALID,20.582,INVALID,360.0,VALID,0.0,
2019-03-19, 01:03:06,VALID,919.133,VALID,0.0,VALID,95.141,VALID,0.014,VALID,20.602,INVALID,360.0,VALID,0.0,
2019-03-19, 01:04:06,VALID,919.127,VALID,0.0,VALID,94.625,VALID,0.013,VALID,20.595,VALID,117.0,VALID,0.0,
2019-03-19, 01:05:06,VALID,919.103,VALID,0.0,VALID,94.141,VALID,0.0,VALID,20.531,VALID,88.0,VALID,0.0,
2019-03-19, 01:06:06,VALID,919.107,VALID,0.0,VALID,94.273,VALID,0.009,VALID,20.483,VALID,87.0,VALID,0.0,
2019-03-19, 01:07:06,VALID,919.076,VALID,0.0,VALID,94.487,VALID,0.011,VALID,20.474,VALID,94.0,VALID,0.0,
2019-03-19, 01:08:06,VALID,919.049,VALID,0.0,VALID,94.559,VALID,0.008,VALID,20.509,VALID,128.0,VALID,0.0,
2019-03-19, 01:09:06,VALID,919.054,VALID,0.0,VALID,94.35,VALID,0.014,VALID,20.517,VALID,129.0,VALID,0.0,
2019-03-19, 01:10:06,VALID,919.039,VALID,0.0,VALID,94.374,VALID,0.011,VALID,20.51,VALID,129.0,VALID,0.0,
2019-03-19, 01:11:06,VALID,919.011,VALID,0.0,VALID,94.394,VALID,-0.006,VALID,20.493,VALID,129.0,VALID,0.0,
2019-03-19, 01:12:06,VALID,919.005,VALID,0.0,VALID,94.266,VALID,-0.031,VALID,20.435,VALID,100.0,VALID,0.0,
2019-03-19, 01:13:06,VALID,918.971,VALID,0.0,VALID,93.914,VALID,-0.025,VALID,20.335,VALID,69.0,VALID,0.0,
2019-03-19, 01:14:06,VALID,918.965,VALID,0.0,VALID,93.926,VALID,-0.001,VALID,20.217,VALID,63.0,VALID,0.0,
2019-03-19, 01:15:06,VALID,918.954,VALID,0.0,VALID,94.726,VALID,-0.005,VALID,20.134,VALID,58.0,VALID,0.0,
2019-03-19, 01:16:06,VALID,918.931,VALID,0.0,VALID,95.559,VALID,0.001,VALID,20.132,VALID,52.0,VALID,0.0,
2019-03-19, 01:17:06,VALID,918.897,VALID,0.0,VALID,95.84,VALID,-0.003,VALID,20.125,VALID,47.0,VALID,0.0,
2019-03-19, 01:18:06,VALID,918.877,VALID,0.0,VALID,95.71,VALID,-0.018,VALID,20.114,VALID,47.0,VALID,0.0,
2019-03-19, 01:19:06,VALID,918.866,VALID,0.0,VALID,95.493,VALID,-0.013,VALID,20.096,VALID,45.0,VALID,0.0,
2019-03-19, 01:20:06,VALID,918.821,VALID,0.0,VALID,95.324,VALID,-0.022,VALID,20.048,VALID,38.0,VALID,0.0,
2019-03-19, 01:21:06,VALID,918.805,VALID,0.0,VALID,95.362,VALID,-0.013,VALID,20.004,VALID,27.0,VALID,0.0,
2019-03-19, 01:22:06,VALID,918.787,VALID,0.0,VALID,95.702,VALID,-0.001,VALID,20.02,VALID,26.0,VALID,0.0,
2019-03-19, 01:23:06,VALID,918.786,VALID,0.0,VALID,95.94,VALID,-0.001,VALID,20.054,VALID,26.0,VALID,0.0,
2019-03-19, 01:24:06,VALID,918.776,VALID,0.0,VALID,95.749,VALID,-0.012,VALID,20.029,VALID,25.0,VALID,0.0,
2019-03-19, 01:25:06,VALID,918.778,VALID,0.0,VALID,95.648,VALID,-0.016,VALID,19.999,VALID,26.0,VALID,0.0,
2019-03-19, 01:26:06,VALID,918.77,VALID,0.0,VALID,95.768,VALID,-0.027,VALID,19.979,VALID,37.0,VALID,0.0,
2019-03-19, 01:27:06,VALID,918.758,VALID,0.0,VALID,95.796,VALID,-0.028,VALID,19.973,VALID,49.0,VALID,0.0,
2019-03-19, 01:28:06,VALID,918.731,VALID,0.0,VALID,95.958,VALID,-0.018,VALID,20.003,VALID,53.0,VALID,0.0,
2019-03-19, 01:29:06,VALID,918.689,VALID,0.0,VALID,96.081,VALID,0.007,VALID,20.034,VALID,53.0,VALID,0.0,
2019-03-19, 01:30:06,VALID,918.702,VALID,0.0,VALID,95.998,VALID,-0.001,VALID,20.032,VALID,56.0,VALID,0.0,
2019-03-19, 01:31:06,VALID,918.687,VALID,0.0,VALID,95.978,VALID,0.006,VALID,20.057,VALID,56.0,VALID,0.0,
2019-03-19, 01:32:06,VALID,918.669,VALID,0.0,VALID,95.984,VALID,-0.006,VALID,20.074,VALID,56.0,VALID,0.0,
2019-03-19, 01:33:06,VALID,918.674,VALID,0.0,VALID,95.853,VALID,-0.001,VALID,20.088,VALID,56.0,VALID,0.0,
2019-03-19, 01:34:06,VALID,918.685,VALID,0.0,VALID,95.623,VALID,-0.006,VALID,20.083,VALID,56.0,VALID,0.0,
2019-03-19, 01:35:06,VALID,918.7,VALID,0.0,VALID,95.424,VALID,-0.007,VALID,20.078,VALID,56.0,VALID,0.0,
2019-03-19, 01:36:06,VALID,918.708,VALID,0.0,VALID,94.996,VALID,-0.01,VALID,20.043,VALID,56.0,VALID,0.0,
2019-03-19, 01:37:06,VALID,918.704,VALID,0.0,VALID,94.802,VALID,-0.025,VALID,20.028,VALID,56.0,VALID,0.0,
2019-03-19, 01:38:06,VALID,918.729,VALID,0.0,VALID,95.09,VALID,-0.028,VALID,20.034,VALID,56.0,VALID,0.0,
2019-03-19, 01:39:06,VALID,918.702,VALID,0.0,VALID,94.896,VALID,-0.011,VALID,20.024,VALID,56.0,VALID,0.0,
2019-03-19, 01:40:06,VALID,918.701,VALID,0.0,VALID,94.341,VALID,-0.025,VALID,19.992,VALID,56.0,VALID,0.0,
2019-03-19, 01:41:06,VALID,918.688,VALID,0.0,VALID,94.792,VALID,-0.013,VALID,20.0,VALID,56.0,VALID,0.0,
2019-03-19, 01:42:06,VALID,918.674,VALID,0.0,VALID,94.799,VALID,-0.009,VALID,20.001,VALID,56.0,VALID,0.0,
2019-03-19, 01:43:06,VALID,918.638,VALID,0.0,VALID,95.191,VALID,-0.006,VALID,20.024,VALID,56.0,VALID,0.0,
2019-03-19, 01:44:06,VALID,918.613,VALID,0.0,VALID,95.274,VALID,-0.039,VALID,19.982,VALID,56.0,VALID,0.0,
2019-03-19, 01:45:06,VALID,918.647,VALID,0.0,VALID,95.004,VALID,-0.043,VALID,19.906,VALID,54.0,VALID,0.0,
2019-03-19, 01:46:06,VALID,918.635,VALID,0.0,VALID,94.509,VALID,-0.043,VALID,19.799,VALID,41.0,VALID,0.0,
2019-03-19, 01:47:06,VALID,918.636,VALID,0.0,VALID,95.141,VALID,-0.044,VALID,19.806,VALID,41.0,VALID,0.0,
2019-03-19, 01:48:06,VALID,918.624,VALID,0.0,VALID,95.784,VALID,-0.038,VALID,19.864,VALID,41.0,VALID,0.0,
2019-03-19, 01:49:06,VALID,918.604,VALID,0.0,VALID,95.858,VALID,-0.044,VALID,19.93,VALID,41.0,VALID,0.0,
2019-03-19, 01:50:06,VALID,918.587,VALID,0.0,VALID,95.657,VALID,-0.039,VALID,20.024,VALID,41.0,VALID,0.0,
2019-03-19, 01:51:06,VALID,918.576,VALID,0.0,VALID,95.231,VALID,-0.061,VALID,20.088,VALID,41.0,VALID,0.0,
2019-03-19, 01:52:06,VALID,918.56,VALID,0.0,VALID,94.53,VALID,-0.053,VALID,20.106,VALID,85.0,VALID,0.0,
2019-03-19, 01:53:06,VALID,918.545,VALID,0.0,VALID,94.392,VALID,-0.069,VALID,20.138,VALID,112.0,VALID,0.0,
2019-03-19, 01:54:06,VALID,918.552,VALID,0.0,VALID,94.317,VALID,-0.029,VALID,20.148,VALID,109.0,VALID,0.0,
2019-03-19, 01:55:06,VALID,918.545,VALID,0.0,VALID,94.143,VALID,-0.043,VALID,20.124,VALID,106.0,VALID,0.0,
2019-03-19, 01:56:06,VALID,918.538,VALID,0.0,VALID,94.009,VALID,-0.04,VALID,20.036,VALID,97.0,VALID,0.0,
2019-03-19, 01:57:06,VALID,918.54,VALID,0.0,VALID,93.792,VALID,-0.045,VALID,19.919,VALID,99.0,VALID,0.0,
2019-03-19, 01:58:06,VALID,918.545,VALID,0.0,VALID,94.003,VALID,-0.044,VALID,19.843,VALID,97.0,VALID,0.0,
2019-03-19, 01:59:06,VALID,918.502,VALID,0.0,VALID,94.408,VALID,0.026,VALID,19.817,VALID,95.0,VALID,0.0,
2019-03-19, 02:00:06,VALID,918.471,VALID,0.0,VALID,94.824,VALID,0.003,VALID,19.812,VALID,98.0,VALID,0.0,
2019-03-19, 02:01:06,VALID,918.435,VALID,0.0,VALID,95.201,VALID,0.013,VALID,19.838,VALID,94.0,VALID,0.0,
2019-03-19, 02:02:06,VALID,918.409,VALID,0.0,VALID,95.192,VALID,0.017,VALID,19.862,VALID,83.0,VALID,0.0,
2019-03-19, 02:03:06,VALID,918.393,VALID,0.0,VALID,94.811,VALID,0.038,VALID,19.838,VALID,78.0,VALID,0.0,
2019-03-19, 02:04:06,VALID,918.383,VALID,0.0,VALID,94.958,VALID,0.03,VALID,19.834,VALID,76.0,VALID,0.0,
2019-03-19, 02:05:06,VALID,918.398,VALID,0.0,VALID,95.251,VALID,0.025,VALID,19.863,VALID,76.0,VALID,0.0,
2019-03-19, 02:06:06,VALID,918.391,VALID,0.0,VALID,95.436,VALID,0.015,VALID,19.92,VALID,77.0,VALID,0.0,
2019-03-19, 02:07:06,VALID,918.383,VALID,0.0,VALID,95.444,VALID,0.006,VALID,20.003,VALID,79.0,VALID,0.0,
2019-03-19, 02:08:06,VALID,918.393,VALID,0.0,VALID,95.202,VALID,0.02,VALID,20.052,VALID,85.0,VALID,0.0,
2019-03-19, 02:09:06,VALID,918.362,VALID,0.0,VALID,94.681,VALID,0.023,VALID,20.05,VALID,88.0,VALID,0.0,
2019-03-19, 02:10:06,VALID,918.355,VALID,0.0,VALID,94.061,VALID,0.038,VALID,19.972,VALID,105.0,VALID,0.0,
2019-03-19, 02:11:06,VALID,918.322,VALID,0.0,VALID,94.114,VALID,0.023,VALID,19.879,VALID,106.0,VALID,0.0,
2019-03-19, 02:12:06,VALID,918.315,VALID,0.0,VALID,94.503,VALID,-0.002,VALID,19.831,VALID,109.0,VALID,0.0,
2019-03-19, 02:13:06,VALID,918.307,VALID,0.0,VALID,94.741,VALID,-0.007,VALID,19.799,VALID,129.0,VALID,0.0,
2019-03-19, 02:14:06,VALID,918.311,VALID,0.0,VALID,94.971,VALID,0.008,VALID,19.814,VALID,128.0,VALID,0.0,
2019-03-19, 02:15:06,VALID,918.316,VALID,0.0,VALID,95.101,VALID,0.018,VALID,19.856,VALID,128.0,VALID,0.0,
2019-03-19, 02:16:06,VALID,918.337,VALID,0.0,VALID,95.173,VALID,0.032,VALID,19.895,VALID,119.0,VALID,0.0,
2019-03-19, 02:17:06,VALID,918.327,VALID,0.0,VALID,95.016,VALID,0.02,VALID,19.874,VALID,105.0,VALID,0.0,
2019-03-19, 02:18:06,VALID,918.301,VALID,0.0,VALID,94.663,VALID,0.013,VALID,19.806,VALID,95.0,VALID,0.0,
2019-03-19, 02:19:06,VALID,918.253,VALID,0.0,VALID,94.689,VALID,0.007,VALID,19.769,VALID,96.0,VALID,0.0,
2019-03-19, 02:20:06,VALID,918.229,VALID,0.0,VALID,94.957,VALID,-0.001,VALID,19.724,VALID,87.0,VALID,0.0,
2019-03-19, 02:21:06,VALID,918.199,VALID,0.0,VALID,95.017,VALID,0.014,VALID,19.684,VALID,91.0,VALID,0.0,
2019-03-19, 02:22:06,VALID,918.162,VALID,0.0,VALID,94.989,VALID,0.015,VALID,19.663,VALID,105.0,VALID,0.0,
2019-03-19, 02:23:06,VALID,918.148,VALID,0.0,VALID,95.018,VALID,0.029,VALID,19.649,VALID,109.0,VALID,0.0,
2019-03-19, 02:24:06,VALID,918.118,VALID,0.0,VALID,95.004,VALID,0.025,VALID,19.627,VALID,103.0,VALID,0.0,
2019-03-19, 02:25:06,VALID,918.091,VALID,0.0,VALID,94.738,VALID,0.016,VALID,19.613,VALID,101.0,VALID,0.0,
2019-03-19, 02:26:06,VALID,918.069,VALID,0.0,VALID,94.681,VALID,0.016,VALID,19.638,VALID,94.0,VALID,0.0,
2019-03-19, 02:27:06,VALID,918.023,VALID,0.0,VALID,94.534,VALID,0.018,VALID,19.699,VALID,93.0,VALID,0.0,
2019-03-19, 02:28:06,VALID,918.013,VALID,0.0,VALID,94.013,VALID,0.034,VALID,19.798,VALID,98.0,VALID,0.0,
2019-03-19, 02:29:06,VALID,917.987,VALID,0.0,VALID,93.533,VALID,0.019,VALID,19.843,VALID,99.0,VALID,0.0,
2019-03-19, 02:30:06,VALID,917.948,VALID,0.0,VALID,93.319,VALID,0.042,VALID,19.919,VALID,94.0,VALID,0.0,
2019-03-19, 02:31:06,VALID,917.935,VALID,0.0,VALID,93.033,VALID,0.039,VALID,19.983,VALID,87.0,VALID,0.0,
2019-03-19, 02:32:06,VALID,917.9,VALID,0.0,VALID,93.021,VALID,0.027,VALID,20.056,VALID,82.0,VALID,0.0,
2019-03-19, 02:33:06,VALID,917.897,VALID,0.0,VALID,92.736,VALID,0.009,VALID,20.103,VALID,83.0,VALID,0.0,
2019-03-19, 02:34:06,VALID,917.906,VALID,0.0,VALID,92.653,VALID,0.024,VALID,20.137,VALID,84.0,VALID,0.0,
2019-03-19, 02:35:06,VALID,917.926,VALID,0.0,VALID,92.463,VALID,0.041,VALID,20.16,VALID,81.0,VALID,0.0,
2019-03-19, 02:36:06,VALID,917.928,VALID,0.0,VALID,92.122,VALID,0.025,VALID,20.149,VALID,76.0,VALID,0.0,
2019-03-19, 02:37:06,VALID,917.921,VALID,0.0,VALID,91.719,VALID,0.022,VALID,20.095,VALID,76.0,VALID,0.0,
2019-03-19, 02:38:06,VALID,917.902,VALID,0.0,VALID,92.112,VALID,0.013,VALID,20.061,VALID,79.0,VALID,0.0,
2019-03-19, 02:39:06,VALID,917.911,VALID,0.0,VALID,92.08,VALID,0.029,VALID,19.997,VALID,79.0,VALID,0.0,
2019-03-19, 02:40:06,VALID,917.89,VALID,0.0,VALID,91.94,VALID,0.018,VALID,19.892,VALID,79.0,VALID,0.0,
2019-03-19, 02:41:06,VALID,917.868,VALID,0.0,VALID,92.519,VALID,0.008,VALID,19.763,VALID,79.0,VALID,0.0,
2019-03-19, 02:42:06,VALID,917.854,VALID,0.0,VALID,93.422,VALID,0.005,VALID,19.648,VALID,79.0,VALID,0.0,
2019-03-19, 02:43:06,VALID,917.819,VALID,0.0,VALID,94.305,VALID,0.019,VALID,19.647,VALID,76.0,VALID,0.0,
2019-03-19, 02:44:06,VALID,917.8,VALID,0.0,VALID,94.718,VALID,0.006,VALID,19.731,VALID,75.0,VALID,0.0,
2019-03-19, 02:45:06,VALID,917.765,VALID,0.0,VALID,94.485,VALID,0.016,VALID,19.812,VALID,82.0,VALID,0.0,
2019-03-19, 02:46:06,VALID,917.735,VALID,0.0,VALID,94.094,VALID,0.029,VALID,19.86,VALID,96.0,VALID,0.0,
2019-03-19, 02:47:06,VALID,917.72,VALID,0.0,VALID,93.684,VALID,0.01,VALID,19.849,VALID,123.0,VALID,0.0,
2019-03-19, 02:48:06,VALID,917.703,VALID,0.0,VALID,93.336,VALID,0.02,VALID,19.823,VALID,137.0,VALID,0.0,
2019-03-19, 02:49:06,VALID,917.706,VALID,0.0,VALID,93.528,VALID,0.026,VALID,19.817,VALID,130.0,VALID,0.0,
2019-03-19, 02:50:06,VALID,917.703,VALID,0.0,VALID,93.717,VALID,0.029,VALID,19.822,VALID,130.0,VALID,0.0,
2019-03-19, 02:51:06,VALID,917.728,VALID,0.0,VALID,93.572,VALID,0.009,VALID,19.804,VALID,132.0,VALID,0.0,
2019-03-19, 02:52:06,VALID,917.735,VALID,0.0,VALID,93.45,VALID,0.018,VALID,19.75,VALID,127.0,VALID,0.0,
2019-03-19, 02:53:06,VALID,917.752,VALID,0.0,VALID,93.928,VALID,0.029,VALID,19.705,VALID,130.0,VALID,0.0,
2019-03-19, 02:54:06,VALID,917.747,VALID,0.0,VALID,94.316,VALID,0.023,VALID,19.675,VALID,127.0,VALID,0.0,
2019-03-19, 02:55:06,VALID,917.743,VALID,0.0,VALID,94.412,VALID,0.025,VALID,19.663,VALID,128.0,VALID,0.0,
2019-03-19, 02:56:06,VALID,917.728,VALID,0.0,VALID,94.663,VALID,0.01,VALID,19.689,VALID,125.0,VALID,0.0,
2019-03-19, 02:57:06,VALID,917.709,VALID,0.0,VALID,94.735,VALID,0.011,VALID,19.722,VALID,123.0,VALID,0.0,
2019-03-19, 02:58:06,VALID,917.688,VALID,0.0,VALID,94.197,VALID,0.007,VALID,19.705,VALID,96.0,VALID,0.0,
2019-03-19, 02:59:06,VALID,917.684,VALID,0.0,VALID,93.251,VALID,-0.003,VALID,19.598,VALID,57.0,VALID,0.0,
2019-03-19, 03:00:06,VALID,917.665,VALID,0.0,VALID,93.955,VALID,0.014,VALID,19.534,VALID,30.0,VALID,0.0,
2019-03-19, 03:01:06,VALID,917.629,VALID,0.0,VALID,94.85,VALID,-0.008,VALID,19.513,VALID,33.0,VALID,0.0,
2019-03-19, 03:02:06,VALID,917.6,VALID,0.0,VALID,95.233,VALID,-0.012,VALID,19.535,VALID,33.0,VALID,0.0,
2019-03-19, 03:03:06,VALID,917.573,VALID,0.0,VALID,95.246,VALID,-0.01,VALID,19.559,VALID,33.0,VALID,0.0,
2019-03-19, 03:04:06,VALID,917.558,VALID,0.0,VALID,95.223,VALID,-0.021,VALID,19.602,VALID,33.0,VALID,0.0,
2019-03-19, 03:05:06,VALID,917.549,VALID,0.0,VALID,94.992,VALID,-0.01,VALID,19.652,VALID,22.0,VALID,0.0,
2019-03-19, 03:06:06,VALID,917.536,VALID,0.0,VALID,94.909,VALID,-0.016,VALID,19.703,VALID,352.0,VALID,0.0,
2019-03-19, 03:07:06,VALID,917.542,VALID,0.0,VALID,94.75,VALID,-0.024,VALID,19.744,VALID,352.0,VALID,0.0,
2019-03-19, 03:08:06,VALID,917.546,VALID,0.0,VALID,94.604,VALID,-0.017,VALID,19.802,VALID,352.0,VALID,0.0,
2019-03-19, 03:09:06,VALID,917.572,VALID,0.0,VALID,94.31,VALID,-0.024,VALID,19.845,VALID,352.0,VALID,0.0,
2019-03-19, 03:10:06,VALID,917.593,VALID,0.0,VALID,94.136,VALID,-0.024,VALID,19.867,VALID,352.0,VALID,0.0,
2019-03-19, 03:11:06,VALID,917.62,VALID,0.0,VALID,93.969,VALID,-0.007,VALID,19.847,VALID,86.0,VALID,0.0,
2019-03-19, 03:12:06,VALID,917.638,VALID,0.0,VALID,94.078,VALID,-0.014,VALID,19.795,VALID,159.0,VALID,0.0,
2019-03-19, 03:13:06,VALID,917.635,VALID,0.0,VALID,94.217,VALID,-0.01,VALID,19.754,VALID,145.0,VALID,0.0,
2019-03-19, 03:14:06,VALID,917.661,VALID,0.0,VALID,94.189,VALID,0.046,VALID,19.724,VALID,124.0,VALID,0.0,
2019-03-19, 03:15:06,VALID,917.662,VALID,0.0,VALID,94.144,VALID,0.044,VALID,19.683,VALID,116.0,VALID,0.0,
2019-03-19, 03:16:06,VALID,917.638,VALID,0.0,VALID,94.09,VALID,0.051,VALID,19.667,VALID,116.0,VALID,0.0,
2019-03-19, 03:17:06,VALID,917.655,VALID,0.0,VALID,94.419,VALID,0.045,VALID,19.653,VALID,121.0,VALID,0.0,
2019-03-19, 03:18:06,VALID,917.64,VALID,0.0,VALID,94.711,VALID,0.024,VALID,19.648,VALID,119.0,VALID,0.0,
2019-03-19, 03:19:06,VALID,917.633,VALID,0.0,VALID,95.193,VALID,0.033,VALID,19.637,VALID,105.0,VALID,0.0,
2019-03-19, 03:20:06,VALID,917.602,VALID,0.0,VALID,95.407,VALID,0.037,VALID,19.612,VALID,96.0,VALID,0.0,
2019-03-19, 03:21:06,VALID,917.584,VALID,0.0,VALID,95.544,VALID,0.039,VALID,19.599,VALID,78.0,VALID,0.0,
2019-03-19, 03:22:06,VALID,917.57,VALID,0.0,VALID,95.456,VALID,0.033,VALID,19.568,VALID,76.0,VALID,0.0,
2019-03-19, 03:23:06,VALID,917.56,VALID,0.0,VALID,95.629,VALID,0.021,VALID,19.607,VALID,86.0,VALID,0.0,
2019-03-19, 03:24:06,VALID,917.54,VALID,0.0,VALID,95.792,VALID,0.046,VALID,19.672,VALID,88.0,VALID,0.0,
2019-03-19, 03:25:06,VALID,917.534,VALID,0.0,VALID,95.575,VALID,0.038,VALID,19.703,VALID,82.0,VALID,0.0,
2019-03-19, 03:26:06,VALID,917.488,VALID,0.0,VALID,95.281,VALID,0.038,VALID,19.723,VALID,80.0,VALID,0.0,
2019-03-19, 03:27:06,VALID,917.478,VALID,0.0,VALID,94.931,VALID,0.034,VALID,19.717,VALID,76.0,VALID,0.0,
2019-03-19, 03:28:06,VALID,917.455,VALID,0.0,VALID,94.596,VALID,0.025,VALID,19.668,VALID,74.0,VALID,0.0,
2019-03-19, 03:29:06,VALID,917.428,VALID,0.0,VALID,94.803,VALID,0.002,VALID,19.653,VALID,75.0,VALID,0.0,
2019-03-19, 03:30:06,VALID,917.399,VALID,0.0,VALID,94.993,VALID,0.013,VALID,19.656,VALID,75.0,VALID,0.0,
2019-03-19, 03:31:06,VALID,917.376,VALID,0.0,VALID,94.995,VALID,-0.002,VALID,19.642,VALID,60.0,VALID,0.0,
2019-03-19, 03:32:06,VALID,917.36,VALID,0.0,VALID,94.768,VALID,0.006,VALID,19.599,VALID,46.0,VALID,0.0,
2019-03-19, 03:33:06,VALID,917.347,VALID,0.0,VALID,94.966,VALID,0.013,VALID,19.579,VALID,50.0,VALID,0.0,
2019-03-19, 03:34:06,VALID,917.339,VALID,0.0,VALID,95.157,VALID,0.006,VALID,19.566,VALID,64.0,VALID,0.0,
2019-03-19, 03:35:06,VALID,917.31,VALID,0.0,VALID,95.363,VALID,0.014,VALID,19.564,VALID,71.0,VALID,0.0,
2019-03-19, 03:36:06,VALID,917.295,VALID,0.0,VALID,95.453,VALID,0.001,VALID,19.56,VALID,63.0,VALID,0.0,
2019-03-19, 03:37:06,VALID,917.283,VALID,0.0,VALID,95.533,VALID,-0.014,VALID,19.565,VALID,57.0,VALID,0.0,
2019-03-19, 03:38:06,VALID,917.243,VALID,0.0,VALID,95.423,VALID,0.0,VALID,19.552,VALID,57.0,VALID,0.0,
2019-03-19, 03:39:06,VALID,917.225,VALID,0.0,VALID,95.579,VALID,-0.016,VALID,19.571,VALID,66.0,VALID,0.0,
2019-03-19, 03:40:06,VALID,917.21,VALID,0.0,VALID,95.568,VALID,0.008,VALID,19.591,VALID,71.0,VALID,0.0,
2019-03-19, 03:41:06,VALID,917.167,VALID,0.0,VALID,95.432,VALID,0.008,VALID,19.59,VALID,63.0,VALID,0.0,
2019-03-19, 03:42:06,VALID,917.191,VALID,0.0,VALID,95.416,VALID,0.007,VALID,19.583,VALID,61.0,VALID,0.0,
2019-03-19, 03:43:06,VALID,917.163,VALID,0.0,VALID,95.597,VALID,0.009,VALID,19.592,VALID,60.0,VALID,0.0,